Location: *
(2.5500°S, 65.9667°W)
Time: 04:06:16
(UTC+00:00)

DELTA-4 R/B - Pass Details

Date: 25 May 2022
Orbit: 448 x 34502 km, 13.4° (Epoch: 04 July)

Event Time Altitude Azimuth Distance (km) Brightness Sun altitude
Rises 02:26:25 0° 255° (WSW) 7,549 8.4 -56.6°
Reaches altitude 10° 02:29:30 10° 253° (WSW) 7,473 8.2 -57.3°
Maximum altitude 04:33:39 88° 235° (SW) 26,346 10.2 -71.3°
Drops below altitude 10° 12:03:44 10° 67° (ENE) 4,870 9.2 22.9°
Sets 12:05:50 0° 72° (ENE) 5,204 8.7 23.4°
